Tracking 19792 objects as of 16-Jul-2019
HD Live streaming from Space Station
objects crossing your sky now

EXPLORER 11

Track EXPLORER 11 now!
10-day predictions
EXPLORER 11 is classified as:


NORAD ID: 107
Int'l Code: 1961-013A
Perigee: 474.3 km
Apogee: 1,266.9 km
Inclination: 28.8 °
Period: 102.2 minutes
Semi major axis: 7241 km
RCS: 0.4708 m2 (medium)
Launch date: April 27, 1961
Source: United States (US)
Launch site: AIR FORCE EASTERN TEST RANGE (AFETR)
aabbcc
Your satellite tracking list
Your tracking list is empty




NASA's NSSDC Master Catalog

Two Line Element Set (TLE):
1   107U 61013A   19196.63462526  .00000450  00000-0  37716-4 0  9996
2   107  28.7910 289.1163 0547269 249.1966 104.9161 14.08802292918092
Source of the keplerian elements: AFSPC